Location: Glaine-Montaigut
(45.7553°N, 3.3894°E)
Time: 01:09:01
(UTC+00:00)

Daily predictions for brighter satellites

Satellite Brightness Start Highest point End
(mag) Time Altitude Azimuth Time Altitude Azimuth Time Altitude Azimuth
Cosmos 1867 3.5 00:05:01 54° SSW 00:06:20 88° SE 00:11:52 10° NE
Cosmos 1461 2.8 00:02:32 10° NW 00:06:31 74° W 00:06:31 74° W
Cosmos 2221 Rocket 3.4 00:06:47 73° SW 00:07:06 79° W 00:11:32 10° N
Cosmos 1674 Rocket 3.4 00:06:55 69° ESE 00:07:09 71° E 00:11:28 10° NNE
Cosmos 2298 Rocket 4.3 00:07:41 47° SE 00:08:35 53° ESE 00:13:45 10° NNE
Cosmos 1674 2.9 00:10:51 61° NW 00:10:51 61° NW 00:14:19 10° N
USA 306 3.9 00:11:52 34° E 00:11:52 34° E 00:14:43 10° ENE
Cosmos 1238 Rocket 3.5 00:10:10 10° NNW 00:12:06 37° NNW 00:12:06 37° NNW
USA 307 4.0 00:15:20 32° E 00:15:20 32° E 00:18:08 10° ENE
ATLAS CENTAUR R/B 2.8 00:10:24 10° NW 00:13:59 30° W 00:13:59 30° W
SL-16 R/B 4.2 00:16:08 14° ESE 00:17:55 16° E 00:21:10 10° ENE
Cosmos 1980 4.0 00:20:37 44° SSE 00:21:53 53° ESE 00:27:22 10° NE
Cosmos 2333 Rocket 3.3 00:19:42 23° WSW 00:22:39 38° NW 00:27:56 10° NNE
Cosmos 1378 Rocket 3.4 00:22:19 72° SSW 00:22:43 83° W 00:27:11 10° N
ATLAS 5 CENTAUR R/B 2.9 00:10:38 10° NW 00:23:10 82° SW 00:24:40 45° SSE
Cosmos 2322 4.3 00:20:47 31° WSW 00:23:13 50° WNW 00:28:48 10° NNE
Cosmos 468 4.4 00:18:02 10° NNW 00:23:17 82° WSW 00:24:27 55° S
CZ-4C R/B 3.0 00:16:22 10° NW 00:23:40 69° WSW 00:27:53 32° SSE
USA 215 4.1 00:21:01 10° NE 00:27:16 49° NNW 00:33:31 10° W
NOSS 0 Rocket 3.9 00:29:22 45° SSW 00:31:24 79° ESE 00:37:40 10° NNE
PSLV R/B 4.3 00:30:02 10° N 00:34:12 44° WNW 00:35:00 39° W
USA 32 4.2 00:35:15 45° SSE 00:36:45 67° E 00:41:59 10° N
Meteor 2-10 Rocket 4.0 00:33:10 10° N 00:38:48 60° ENE 00:41:17 32° SE
Cosmos 1975 Rocket 4.0 00:39:39 33° ESE 00:40:40 38° E 00:44:49 10° NNE
Cosmos 2151 Rocket 4.4 00:36:41 10° NNW 00:40:44 36° W 00:40:53 36° W
Cosmos 1745 Rocket 4.0 00:36:23 10° NNW 00:42:32 65° W 00:44:35 42° SSW
ADEOS Rocket 4.0 00:42:18 25° WSW 00:43:21 26° W 00:48:15 10° NW
Cosmos 839 Rocket 4.2 00:37:37 10° NW 00:44:01 86° WSW 00:49:12 22° SSE
USA 308 2.8 00:44:46 66° SE 00:44:46 66° SE 00:48:54 10° ENE
Okean 2 Rocket 4.2 00:41:03 10° NNW 00:44:59 30° W 00:45:13 30° W
Cosmos 2219 Rocket 3.5 00:42:56 20° WSW 00:45:58 33° NW 00:51:01 10° N
Cosmos 1025 Rocket 4.1 00:47:03 31° SE 00:48:09 36° E 00:52:06 10° NNE
Meteor 2-12 Rocket 4.3 00:44:05 10° NNW 00:50:10 78° W 00:52:26 41° S
GP-B 3.0 00:52:41 10° N 00:57:09 84° E 00:58:07 55° S
Meteor 2-5 Rocket 4.3 00:55:38 30° SSE 00:58:11 51° E 01:03:39 10° NNE
Lacrosse 5 2.6 00:58:31 34° SSE 00:59:16 36° SE 01:03:55 10° ENE
CZ-2D R/B 2.9 00:55:04 10° NNE 01:00:11 42° E 01:02:28 28° SSE
Cosmos 1300 2.6 00:57:36 10° NNW 01:01:22 67° W 01:01:27 67° WSW
SL-14 R/B 3.7 01:02:27 45° W 01:02:43 46° WNW 01:06:28 10° N
USA 267 3.7 01:02:14 34° SW 01:03:05 36° SW 01:09:01 10° WNW
Cosmos 371 Rocket 3.7 01:06:03 38° WSW 01:07:31 53° WNW 01:12:18 10° NNE
Cosmos 2150 Rocket 4.4 01:06:08 36° WSW 01:07:56 53° WNW 01:12:59 10° NNE
USA 305 2.9 01:07:08 48° WSW 01:08:12 75° NNW 01:12:23 10° NE
USA 229 DEB 4.1 01:03:46 10° NW 01:10:57 54° WSW 01:15:06 28° S
USA 229 4.1 01:03:52 10° NW 01:11:04 54° WSW 01:15:14 27° S
Cosmos 2237 Rocket 2.3 01:11:28 36° SW 01:13:47 68° WNW 01:19:30 10° NNE
COSMOS 2428 4.2 01:12:17 16° W 01:15:45 29° NW 01:20:40 10° N
Cosmos 304 Rocket 3.9 01:17:17 42° SW 01:18:48 65° WNW 01:23:37 10° NNE
Cosmos 1437 Rocket 4.3 01:16:46 10° NW 01:19:16 21° W 01:19:16 21° W
SL-16 R/B 2.8 01:14:42 15° SSE 01:19:52 66° ENE 01:26:04 10° N
Lacrosse 5 rocket 2.3 01:21:54 28° SE 01:22:09 29° SE 01:25:38 10° ENE
Cosmos 1125 Rocket 4.4 01:20:00 27° WSW 01:22:09 39° WNW 01:27:03 10° N
Okean 1 Rocket 4.3 01:20:00 10° NNW 01:23:41 26° W 01:24:05 26° W
SME Rocket 3.1 01:24:34 46° SSW 01:25:35 63° WSW 01:30:29 10° NNW
Cosmos 1953 3.9 01:23:22 10° NW 01:26:25 22° W 01:26:25 22° W
Cosmos 2074 Rocket 4.2 01:22:44 10° N 01:29:03 70° E 01:33:59 17° SSE
Resurs 1-4 Rocket 2.1 01:24:09 10° NNE 01:29:27 78° ESE 01:31:56 32° S
Cosmos 2297 4.2 01:27:49 10° NNW 01:33:33 63° ENE 01:39:13 10° SE
Cosmos 1943 Rocket 2.3 01:27:53 10° NNW 01:33:36 78° ENE 01:39:16 10° SSE
MOZ.5/SAFIR/RUBIN 5/SL-8 4.3 01:33:59 36° SW 01:35:06 42° W 01:39:37 10° NNW
Cosmos 2315 Rocket 4.5 01:35:34 28° SW 01:38:37 48° WNW 01:44:47 10° N
Cosmos 2184 Rocket 4.0 01:37:38 10° N 01:43:57 85° E 01:48:45 18° S
Cosmos 2278 Rocket 3.2 01:39:50 10° NW 01:44:25 26° WSW 01:45:23 25° WSW
ADEOS II 2.5 01:40:10 10° NNE 01:45:22 58° E 01:48:40 22° S
IDEFIX/ARIANE 42P 3.3 01:41:08 10° NNE 01:46:15 49° E 01:49:52 19° SSE
USA 306 3.7 01:47:33 18° W 01:50:20 45° NNW 01:54:22 10° NE
Cosmos 2084 Rocket 3.3 01:49:15 37° WSW 01:50:35 64° NW 01:54:22 10° NE
Thor Agena Rocket 4.5 01:48:38 10° N 01:53:29 38° WNW 01:56:09 23° WSW
USA 307 3.6 01:51:04 19° W 01:53:47 48° NNW 01:57:52 10° NE
ERBS 3.5 01:54:54 22° WNW 01:56:09 32° NNW 01:58:58 10° NE
NPP 3.6 01:52:03 10° N 01:57:28 76° WNW 02:00:36 26° SSW
Cosmos 2369 Rocket 3.1 01:53:21 10° NNW 01:58:48 50° ENE 02:04:13 10° SE
SL-16 R/B 2.2 01:58:00 27° SSW 02:01:15 82° WNW 02:06:59 10° NNE
Cosmos 1455 Rocket 4.1 01:58:10 10° NNW 02:02:01 29° W 02:03:15 25° WSW
CZ-4 R/B 4.1 01:57:52 10° N 02:02:23 52° WNW 02:04:41 27° SW
Cosmos 614 Rocket 4.0 01:57:21 10° NNW 02:02:35 81° ENE 02:07:48 10° SSE
Cosmos 2228 3.9 01:58:29 10° N 02:02:44 48° ENE 02:06:54 10° SSE
EO 1 Del DPAF 3.3 02:00:03 10° NNE 02:03:32 60° ESE 02:05:17 26° S
Cosmos 2251 Rocket 4.3 01:59:22 10° NNW 02:04:32 53° ENE 02:09:42 10° SE
Meteor 1-28 Rocket 3.1 02:03:36 21° SSE 02:06:00 89° E 02:09:46 10° NNW
COSMOS 2455 3.0 02:04:48 22° SSW 02:08:45 66° ESE 02:14:44 10° NE
Cosmos 1536 Rocket 3.5 02:08:02 25° S 02:10:37 85° W 02:15:02 10° N
Iridium 82 4.4 02:09:13 28° S 02:11:02 87° W 02:14:35 10° N
CZ-4C R/B 4.4 02:06:51 10° WNW 02:11:30 17° WSW 02:12:59 16° WSW
Nadezhda 1 Rocket 4.0 02:15:05 18° SSW 02:20:02 80° W 02:26:22 10° N
Meteor 1-24 Rocket 4.3 02:17:04 21° SW 02:20:21 41° WNW 02:25:30 10° N
UNK 4.2 02:19:09 22° SSW 02:21:41 42° W 02:26:05 10° NNW
MSX 3.9 02:17:35 10° NNE 02:23:23 78° ESE 02:28:25 14° S
USA 308 4.2 02:20:42 10° W 02:24:35 36° NNW 02:28:29 10° NE
MOS 1 Rocket 3.5 02:23:22 22° SSW 02:25:46 42° W 02:29:53 10° NNW
Cosmos 1455 2.9 02:22:31 10° NNW 02:25:53 33° W 02:27:23 24° SW
Cosmos 1271 Rocket 2.7 02:26:01 10° NNW 02:29:47 60° W 02:32:44 16° S
Cosmos 1606 Rocket 3.9 02:29:31 10° N 02:33:56 68° E 02:38:18 10° SSE
ALOS 4.1 02:33:33 10° NE 02:37:32 27° E 02:41:30 10° SSE
CZ-2C R/B 4.2 02:35:14 10° NNE 02:39:43 30° E 02:44:04 10° SSE
CZ-2D R/B 3.3 02:35:26 10° N 02:40:02 30° WNW 02:43:47 14° WSW
Lacrosse 5 2.4 02:37:42 13° WSW 02:42:07 53° NNW 02:47:08 10° NE
Helios 1B rocket 3.3 02:40:32 10° NNE 02:44:28 47° E 02:48:24 10° S
Cosmos 2341 Rocket 4.1 02:40:21 10° N 02:46:46 88° ENE 02:53:11 10° S
Cosmos 2154 Rocket 4.5 02:44:08 10° NNW 02:50:04 43° W 02:55:57 10° SSW
BREEZE-M DEB (TANK) 3.3 02:47:13 15° SW 02:50:52 40° SSE 02:53:15 10° E
Meteor 2-1 Rocket 4.2 02:45:31 10° NNW 02:51:20 86° W 02:56:58 10° S
Cosmos 407 Rocket 3.7 02:47:11 10° NNW 02:52:32 77° ENE 02:57:47 10° SSE
SL-8 Rocket 4.1 02:47:09 10° N 02:53:31 83° E 02:59:51 10° S
Cosmos 1943 3.4 02:50:42 11° SSW 02:56:16 76° ESE 03:01:58 10° NNE
Cosmos 1328 3.8 02:52:20 10° S 02:56:16 88° ESE 03:00:17 10° N
Helios 1A 3.9 02:53:26 13° SSW 02:56:29 29° W 03:00:12 10° NW
Cosmos 2237 Rocket 4.4 02:55:45 10° WNW 02:58:59 15° NW 03:02:14 10° N
Genesis I 3.7 02:55:53 10° NNW 02:59:58 68° NE 03:03:56 10° SE
Lacrosse 5 rocket 2.0 02:57:25 11° WSW 03:01:02 46° NNW 03:05:02 10° NE
Cosmos 1140 Rocket 3.5 02:58:12 10° NNW 03:03:29 83° WSW 03:08:43 10° SSE
SL-16 R/B 3.8 02:59:47 12° SW 03:03:57 22° W 03:08:43 10° NW
Lacrosse 4 Rocket 3.7 03:05:31 10° SSE 03:08:38 20° ESE 03:11:42 10° ENE
Resurs 1-4 Rocket 3.9 03:05:19 10° NNW 03:08:38 17° WNW 03:11:58 10° W
SeaSat 1 4.1 03:05:14 10° NE 03:09:33 29° ESE 03:13:50 10° S
Cosmos 1892 Rocket 3.6 03:05:36 10° S 03:10:03 85° W 03:14:34 10° N
Cosmos 1726 Rocket 3.6 03:09:09 10° NNW 03:13:31 59° W 03:17:49 10° S
Cosmos 1943 Rocket 3.7 03:13:09 10° WNW 03:16:38 17° W 03:20:06 10° SW
FENGYUN 3A 3.8 03:12:12 10° NNE 03:17:36 78° ESE 03:23:00 10° S
Cosmos 2263 4.3 03:12:17 10° NNW 03:17:50 57° WSW 03:23:25 10° S
NOSS 3-3 (A) 3.9 03:13:42 10° SW 03:19:21 82° NW 03:25:55 10° NE
NOSS 3-3 (C) 3.9 03:13:48 10° SW 03:19:27 82° NW 03:26:01 10° NE
ADEOS II 3.6 03:20:40 10° NNW 03:24:38 22° WNW 03:28:36 10° WSW
Cosmos 1825 3.7 03:21:27 10° SSE 03:24:53 37° E 03:28:21 10° NNE
IDEFIX/ARIANE 42P 3.9 03:21:15 10° N 03:25:32 26° WNW 03:29:48 10° WSW
SL-24 DEB 4.4 03:21:40 10° S 03:26:21 62° W 03:31:03 10° N
ARIANE 5 R/B 2.9 03:22:48 10° NNE 03:27:52 66° ESE 03:32:49 10° S
Cosmos 1624 Rocket 4.2 03:23:20 10° SSW 03:28:39 80° ESE 03:33:58 10° NNE
CBERS-1 4.3 03:25:44 10° N 03:30:43 53° WNW 03:35:41 10° SW
